CAPE
45 0 0 0 0 0 0 0 0 0 0 0 1 1 1 12 15 10 8 25 6 18 19 0 1 1 1 14 0 1 2 5 2 4 4 4 1 2 3 2 0 0 0
13 0 0 0 0 0 0 0 0 0 0 0 1 1 2 1 1 1 19 31 14 17 6 1 1 5 1 1 0 0 0 0 0 1 0 1 2 1 0 0 3 1 0
17 0 0 0 0 0 0 0 0 0 0 0 1 1 1 1 0 1 0 1 1 1 1 3 4 4 1 1 1 0 0 1 0 0 1 1 6 0 0 0 0 0 0
79 2 0 0 0 18 10 0 0 0 0 0 1 1 1 0 0 0 0 1 1 1 1 1 1 0 0 0 0 0 0 0 0 0 1 1 1 0 0 0 0 0 0
84 59 28 0 0 19 0 0 0 1 1 0 0 0 0 0 0 0 0 1 0 0 0 1 1 2 1 0 0 0 0 0 0 0 0 0 1 2 0 1 0 0 0
79 21 0 53 34 10 0 0 1 0 0 0 0 0 0 1 0 0 0 1 1 0 0 1 1 0 1 1 1 0 0 1 0 0 0 1 0 1 0 2 1 0 0
310 146 0 12 0 1 1 0 0 0 0 0 0 0 0 0 0 0 0 0 0 0 0 0 0 0 0 0 0 0 0 0 0 0 0 0 0 0 0 0 1 1 0
157 137 4 0 0 1 0 0 0 0 0 0 0 0 0 0 0 0 0 0 0 0 0 0 0 0 0 0 0 0 0 0 0 0 0 0 0 0 0 0 0 1 0
7 1 0 0 1 0 0 0 0 0 0 0 0 0 0 0 0 0 0 0 0 0 0 0 0 0 0 0 0 0 0 0 0 0 0 0 0 0 0 0 0 0 0
1 1 0 0 0 0 0 0 0 0 0 0 0 0 0 0 0 0 0 0 0 0 0 0 0 0 0 0 0 0 0 0 0 0 0 0 0 0 0 0 0 0 0
0 0 0 0 0 0 0 0 0 0 0 0 0 0 0 0 0 0 0 0 0 0 0 0 0 0 0 0 0 0 0 0 0 0 0 0 0 0 0 0 0 0 0
1 0 0 1 5 4 0 0 0 0 0 0 0 1 1 0 0 0 0 0 0 0 0 0 0 0 0 0 0 0 0 0 0 0 0 0 0 0 0 0 0 0 0
1 1 1 1 1 3 3 1 1 0 0 0 0 0 0 1 1 0 0 0 0 0 0 0 0 0 0 0 0 0 0 0 0 0 0 0 0 0 0 0 0 0 0
1 1 3 3 1 2 1 0 0 0 0 0 0 0 0 0 0 0 0 0 0 0 0 0 0 0 0 0 0 0 0 0 0 0 0 0 0 0 0 0 0 0 0
0 0 0 0 0 0 0 0 0 0 0 0 0 0 0 0 0 0 0 0 0 0 0 0 0 0 0 0 0 0 0 0 0 0 0 0 0 0 0 0 0 0 0
0 0 0 0 0 0 0 0 0 0 0 0 0 0 0 0 0 0 0 0 0 0 0 0 0 0 0 0 0 0 0 0 0 0 0 0 0 0 0 0 0 0 0
0 0 0 0 0 0 0 0 0 0 0 0 0 0 0 0 0 0 0 0 0 0 0 0 0 0 0 0 0 0 0 0 0 0 0 0 0 0 0 0 0 0 0
0 0 0 0 0 0 0 0 0 0 0 0 0 0 0 0 0 0 0 0 0 0 0 0 0 0 0 0 0 0 0 0 0 0 0 0 0 0 0 0 0 0 0
0 0 0 0 0 0 0 0 0 0 0 0 0 0 0 0 0 0 0 0 0 0 0 0 0 0 0 0 0 0 0 0 0 0 0 0 0 0 0 0 0 0 0
0 0 0 0 0 0 0 0 0 0 0 0 0 0 0 0 0 0 0 0 0 0 0 0 0 0 0 0 0 0 0 0 0 0 0 0 0 0 0 0 0 0 0
0 0 0 0 0 0 0 0 0 0 0 0 0 0 0 0 0 0 0 0 0 0 0 0 0 0 0 0 0 0 0 0 0 0 0 0 0 0 0 0 0 0 0
0 0 0 0 0 0 0 0 0 0 0 0 0 0 0 0 0 0 0 0 0 0 0 0 0 0 0 0 0 0 0 0 0 0 0 0 0 0 0 0 0 0 0
0 0 0 0 0 0 0 0 0 0 0 0 0 0 0 0 0 0 0 0 0 0 0 0 0 0 0 0 0 0 0 0 0 0 0 0 0 0 0 0 0 0 0
0 0 0 0 0 0 0 0 0 0 0 0 0 0 0 0 0 0 0 0 0 0 0 0 0 0 0 0 0 0 0 0 0 0 0 0 0 0 0 0 0 0 0
0 0 0 0 0 0 0 0 0 0 0 0 0 0 0 0 0 0 0 0 0 0 0 0 0 0 0 0 0 0 0 0 0 0 0 0 0 0 0 0 0 0 0
0 0 0 0 0 0 0 0 0 0 0 0 0 0 0 0 0 0 0 0 0 0 0 0 0 0 0 0 0 0 0 0 0 0 0 0 0 0 0 0 0 0 0
CIN
-296 0 0 0 0 0 0 0 0 0 0 0 0 0 -32 -58 -61 -94 -104 -99 -82 -101 -115 0 0 0 0 -23 0 -38 -111 -87 -78 -126 -138 -183 0 0 0 0 0 0 0
-314 0 0 0 0 0 0 0 0 0 0 0 -13 0 -139 0 0 0 -74 -81 -107 -96 -113 0 0 0 0 0 0 0 0 0 -3 -95 -1 0 0 0 0 0 0 0 0
-323 0 0 0 0 0 0 0 0 0 0 0 0 0 0 0 0 0 0 0 0 0 0 0 0 0 0 0 0 0 0 0 0 0 0 0 -47 0 0 0 0 0 0
-274 -106 0 0 0 -193 -175 0 0 0 0 0 0 0 0 0 0 0 0 0 0 0 0 0 0 0 0 0 0 0 0 0 0 -31 0 0 0 0 0 0 0 0 0
-271 -285 -286 0 0 -167 0 0 0 0 0 0 0 0 0 0 0 0 0 0 0 0 0 0 0 0 0 0 0 0 0 0 0 0 0 0 0 0 0 0 0 0 0
-276 -287 0 -259 -162 -94 0 0 0 0 0 0 0 0 0 0 0 0 0 0 0 0 0 0 0 0 0 0 0 0 0 0 0 0 0 0 0 0 0 0 0 0 0
-171 -168 0 -212 0 0 0 0 0 0 0 0 0 0 0 0 0 0 0 0 0 0 0 0 0 0 0 0 0 0 0 0 0 0 0 0 0 0 0 0 0 0 0
-186 -127 -89 0 0 0 0 0 0 0 0 0 0 0 0 0 0 0 0 0 0 0 0 0 0 0 0 0 0 0 0 0 0 0 0 0 0 0 0 0 0 0 0
-47 -48 -68 0 0 0 0 0 0 0 0 0 0 0 0 0 0 0 0 0 0 0 0 0 0 0 0 0 0 0 0 0 0 0 0 0 0 0 0 0 0 0 0
0 0 0 0 0 0 0 0 0 0 0 0 0 0 0 0 0 0 0 0 0 0 0 0 0 0 0 0 0 0 0 0 0 0 0 0 0 0 0 0 0 0 0
0 0 0 0 0 0 0 0 0 0 0 0 0 0 0 0 0 0 0 0 0 0 0 0 0 0 0 0 0 0 0 0 0 0 0 0 0 0 0 0 0 0 0
0 0 0 0 0 0 0 0 0 0 0 0 0 0 0 0 0 0 0 0 0 0 0 0 0 0 0 0 0 0 0 0 0 0 0 0 0 0 0 0 0 0 0
0 0 0 0 0 0 0 0 0 0 0 0 0 0 0 0 0 0 0 0 0 0 0 0 0 0 0 0 0 0 0 0 0 0 0 0 0 0 0 0 0 0 0
0 0 0 0 0 0 0 0 0 0 0 0 0 0 0 0 0 0 0 0 0 0 0 0 0 0 0 0 0 0 0 0 0 0 0 0 0 0 0 0 0 0 0
0 0 0 0 0 0 0 0 0 0 0 0 0 0 0 0 0 0 0 0 0 0 0 0 0 0 0 0 0 0 0 0 0 0 0 0 0 0 0 0 0 0 0
0 0 0 0 0 0 0 0 0 0 0 0 0 0 0 0 0 0 0 0 0 0 0 0 0 0 0 0 0 0 0 0 0 0 0 0 0 0 0 0 0 0 0
0 0 0 0 0 0 0 0 0 0 0 0 0 0 0 0 0 0 0 0 0 0 0 0 0 0 0 0 0 0 0 0 0 0 0 0 0 0 0 0 0 0 0
0 0 0 0 0 0 0 0 0 0 0 0 0 0 0 0 0 0 0 0 0 0 0 0 0 0 0 0 0 0 0 0 0 0 0 0 0 0 0 0 0 0 0
0 0 0 0 0 0 0 0 0 0 0 0 0 0 0 0 0 0 0 0 0 0 0 0 0 0 0 0 0 0 0 0 0 0 0 0 0 0 0 0 0 0 0
0 0 0 0 0 0 0 0 0 0 0 0 0 0 0 0 0 0 0 0 0 0 0 0 0 0 0 0 0 0 0 0 0 0 0 0 0 0 0 0 0 0 0
0 0 0 0 0 0 0 0 0 0 0 0 0 0 0 0 0 0 0 0 0 0 0 0 0 0 0 0 0 0 0 0 0 0 0 0 0 0 0 0 0 0 0
0 0 0 0 0 0 0 0 0 0 0 0 0 0 0 0 0 0 0 0 0 0 0 0 0 0 0 0 0 0 0 0 0 0 0 0 0 0 0 0 0 0 0
0 0 0 0 0 0 0 0 0 0 0 0 0 0 0 0 0 0 0 0 0 0 0 0 0 0 0 0 0 0 0 0 0 0 0 0 0 0 0 0 0 0 0
0 0 0 0 0 0 0 0 0 0 0 0 0 0 0 0 0 0 0 0 0 0 0 0 0 0 0 0 0 0 0 0 0 0 0 0 0 0 0 0 0 0 0
0 0 0 0 0 0 0 0 0 0 0 0 0 0 0 0 0 0 0 0 0 0 0 0 0 0 0 0 0 0 0 0 0 0 0 0 0 0 0 0 0 0 0
0 0 0 0 0 0 0 0 0 0 0 0 0 0 0 0 0 0 0 0 0 0 0 0 0 0 0 0 0 0 0 0 0 0 0 0 0 0 0 0 0 0 0
Wind_Speed
5 4 3 2 2 4 4 5 5 5 5 6 5 5 3 3 3 3 3 3 5 6 6 7 7 5 4 3 3 2 2 2 2 2 3 3 4 4 5 5 6 6 5
6 5 4 2 1 4 5 5 5 5 5 6 7 7 7 7 5 5 6 5 6 8 8 8 8 4 6 6 3 4 3 2 2 0 2 3 5 3 3 6 5 5 5
6 6 4 2 1 3 4 4 5 5 6 6 7 8 8 8 9 8 8 7 6 6 5 7 6 7 6 4 4 4 3 2 2 2 1 0 2 2 4 5 5 6 4
6 6 5 4 3 3 4 5 5 5 6 7 8 8 9 8 9 9 10 9 9 8 8 6 5 5 6 4 3 4 3 3 2 3 2 2 2 4 4 3 4 4 4
6 6 6 4 4 5 5 6 5 7 7 7 7 8 8 8 6 9 9 8 8 8 8 8 7 9 8 5 1 1 3 2 2 2 2 1 1 2 2 3 3 2 3
6 5 6 6 6 5 6 6 7 7 7 7 7 7 8 6 10 12 10 8 7 7 7 7 7 11 12 13 14 16 10 2 2 2 2 1 1 1 1 3 4 2 3
6 4 4 5 8 6 7 8 7 7 6 7 6 7 7 7 12 13 14 7 8 7 6 4 5 6 6 6 12 15 17 19 14 3 5 4 3 4 3 3 3 3 3
5 5 6 7 7 8 8 7 7 6 6 5 6 6 6 7 13 14 17 10 9 9 7 5 6 6 7 7 10 12 12 13 11 9 10 8 6 4 3 2 3 6 5
4 5 8 10 9 9 8 6 6 8 6 5 5 7 9 8 10 12 12 9 10 9 9 8 7 7 10 9 8 9 9 8 11 15 14 13 13 12 7 4 5 3 3
5 4 7 9 10 10 9 7 5 6 6 4 9 8 9 9 9 10 9 6 10 7 8 9 18 11 14 12 8 6 7 5 4 5 4 8 10 10 13 8 4 4 3
6 8 8 9 9 10 9 7 7 7 7 8 9 9 9 8 7 10 8 7 7 7 7 7 6 15 13 12 9 5 3 2 6 5 4 5 5 5 4 5 5 4 3
8 9 9 9 7 6 10 8 7 7 9 8 9 8 7 7 11 12 14 12 10 8 7 5 5 12 11 10 7 10 11 7 5 5 5 6 5 5 5 4 5 4 2
11 10 10 11 9 7 7 8 6 6 6 5 5 7 6 5 7 12 13 13 13 8 5 7 10 9 10 9 14 13 10 6 5 6 4 4 2 3 4 4 4 5 5
11 10 9 9 10 7 6 6 5 6 5 5 6 6 5 5 5 4 5 6 11 7 7 6 8 9 11 7 7 7 5 5 5 3 3 2 3 4 4 4 3 4 3
10 8 8 7 9 8 7 5 5 3 4 5 4 5 5 5 2 4 4 4 4 4 5 4 4 4 4 4 4 5 4 5 5 2 3 3 4 4 4 4 3 3 4
9 7 5 6 6 6 7 7 15 11 12 10 9 5 3 5 6 7 7 7 6 5 5 3 3 3 3 1 2 3 3 4 3 3 3 3 3 3 3 4 3 3 3
8 7 6 6 5 6 4 6 7 7 12 9 9 8 7 7 7 7 5 8 7 6 3 2 3 2 2 2 3 2 2 2 1 4 3 2 2 3 4 3 3 3 2
6 9 5 4 4 5 5 5 4 6 4 2 5 4 7 7 6 6 7 6 3 5 2 2 2 3 3 3 2 2 1 2 2 2 3 3 3 2 3 3 3 2 2
7 5 4 4 4 4 4 4 3 4 4 4 2 2 2 4 5 5 5 2 3 3 2 2 2 3 3 3 2 2 2 3 3 2 2 2 2 2 2 2 3 4 3
5 9 5 4 4 4 3 4 4 3 4 3 3 3 2 2 1 1 1 2 3 3 3 4 4 4 3 3 3 2 2 2 3 2 2 1 1 1 2 2 2 2 2
4 4 6 4 4 4 4 4 4 4 3 3 3 3 5 3 3 2 2 2 3 4 4 3 4 4 4 3 3 2 2 4 3 3 2 1 1 1 1 1 2 3 0
5 5 5 5 4 5 5 4 4 4 4 4 3 3 8 2 2 3 4 5 4 4 3 4 3 4 5 5 5 4 4 5 4 3 3 1 1 1 1 1 2 2 1
5 7 7 8 7 8 5 5 6 5 5 5 4 5 4 4 4 5 5 5 5 4 4 3 4 4 4 4 4 5 5 5 5 4 3 2 1 1 1 1 1 1 1
5 6 7 7 6 6 7 6 6 8 7 7 6 5 5 4 5 6 5 5 5 4 4 5 5 6 4 3 2 2 3 4 4 4 4 3 3 2 1 1 1 2 2
3 0 4 6 5 6 5 5 6 7 7 6 6 5 5 5 5 6 5 5 5 5 6 5 5 7 8 8 6 6 5 6 5 5 3 4 4 4 2 1 1 2 3
3 3 2 3 4 4 4 5 6 6 7 6 6 6 7 8 7 7 6 6 5 5 6 5 7 9 10 7 9 9 7 6 6 7 5 4 4 3 2 3 4 2 3
Wind_Direction
158 178 198 210 82 34 33 18 10 11 13 32 26 80 99 203 180 170 158 159 147 149 136 127 116 142 147 145 122 99 89 125 235 320 29 360 43 38 64 64 59 58 49
169 164 192 206 63 53 41 17 19 23 22 32 38 54 68 82 90 99 112 115 134 137 129 130 127 121 115 115 104 103 95 68 217 233 17 34 59 2 37 66 43 44 43
164 165 180 203 134 90 72 46 41 27 26 37 56 57 65 69 76 71 78 75 74 81 112 134 142 143 114 114 119 118 85 59 49 100 70 148 91 61 48 49 60 60 65
171 166 185 214 187 125 102 76 54 36 34 37 51 62 61 66 78 80 77 72 68 62 60 67 82 105 122 117 109 114 117 97 85 88 82 68 91 67 68 71 46 49 51
173 171 198 193 166 132 109 88 67 49 42 32 43 50 54 64 66 78 77 75 71 62 50 61 58 72 77 76 73 157 158 139 129 102 70 62 51 107 140 122 107 94 68
180 195 165 152 134 120 108 95 77 65 45 50 39 46 54 64 75 78 81 78 72 71 71 63 62 65 62 66 60 51 35 310 211 178 162 104 60 37 27 144 148 140 115
179 178 147 142 122 117 107 101 90 81 74 56 43 45 49 64 71 75 77 72 73 69 79 93 94 87 80 75 63 57 49 49 50 52 67 31 27 3 15 19 82 87 80
182 155 137 115 121 107 97 98 93 84 63 64 51 49 56 55 80 80 79 70 59 46 38 51 77 73 56 67 77 66 56 53 50 65 70 50 49 33 18 50 40 79 78
342 169 149 137 130 117 99 89 84 90 71 60 58 63 87 70 64 81 84 75 69 52 45 57 61 56 51 52 70 70 61 61 66 72 77 72 60 50 44 84 50 67 74
20 23 132 132 126 118 112 103 82 81 79 64 71 54 70 95 71 85 97 102 89 78 60 59 66 68 58 51 67 64 68 35 54 61 34 40 40 38 46 59 55 71 49
48 51 66 90 103 110 105 99 101 95 91 74 73 61 58 43 61 74 66 89 97 91 82 68 59 64 58 46 49 68 79 75 72 71 57 43 34 37 29 32 38 69 89
71 69 71 79 88 95 107 100 95 97 90 84 88 73 55 53 54 59 71 75 79 92 83 74 64 72 68 51 44 42 42 56 66 62 55 41 37 18 5 13 15 358 29
82 75 74 82 75 81 87 96 99 89 88 86 85 88 76 56 64 59 70 76 78 82 81 89 71 52 51 54 48 45 43 49 55 58 47 30 12 321 345 6 355 19 45
85 78 79 83 88 59 71 74 78 86 102 96 93 88 82 76 66 49 60 68 68 68 62 58 70 70 68 61 48 37 44 67 80 79 55 356 338 11 20 357 20 354 39
86 88 90 96 88 80 56 49 75 42 89 115 103 112 118 108 88 81 92 86 88 86 76 47 43 40 48 36 37 47 47 48 60 43 52 39 24 15 3 353 22 19 65
106 104 95 99 95 99 103 85 45 62 70 78 88 108 58 106 114 95 89 98 90 110 62 78 68 65 80 64 60 43 33 56 49 60 56 50 35 21 12 6 31 43 43
111 112 110 99 100 114 97 102 102 36 62 65 92 103 108 133 98 78 69 88 85 73 84 96 116 129 136 116 96 66 61 16 55 83 81 54 32 29 38 19 1 20 4
97 104 101 117 128 124 125 130 130 137 134 96 34 106 108 108 97 63 109 81 55 48 90 153 165 147 151 151 142 112 84 71 80 79 77 60 39 42 34 17 15 0 0
108 98 113 110 102 107 105 111 122 129 140 140 118 73 153 120 88 75 74 125 151 159 160 153 163 171 174 165 143 129 157 182 157 128 86 77 43 65 37 24 353 12 48
105 137 149 139 137 140 150 147 139 152 148 156 157 174 156 110 90 57 63 129 148 162 164 178 189 193 186 182 164 128 146 163 141 137 130 115 46 88 84 23 9 342 339
144 157 181 175 165 176 176 181 177 164 173 188 197 189 189 145 171 176 172 161 161 161 170 179 188 196 192 177 156 178 180 173 173 161 146 166 18 24 8 5 356 333 242
160 183 198 200 193 194 199 190 196 191 197 199 212 222 195 212 214 210 193 190 198 202 191 174 182 187 188 184 183 184 194 188 186 175 170 168 112 23 10 338 356 16 19
199 212 215 211 200 198 196 197 202 210 201 213 195 210 200 207 210 200 197 190 192 186 180 186 180 184 206 214 200 198 196 203 196 177 174 164 168 185 279 293 329 344 343
227 246 207 199 172 169 182 190 202 204 205 205 203 207 209 203 198 203 200 192 196 189 188 195 184 177 189 207 211 195 186 168 168 182 164 168 191 223 263 295 298 283 295
300 150 180 187 183 177 168 185 204 203 207 204 204 202 201 198 201 211 204 197 198 193 202 194 193 184 186 188 190 187 184 170 171 163 155 166 192 207 204 204 263 299 285
348 350 282 203 179 175 190 194 209 209 206 209 206 200 198 203 206 203 200 190 201 211 205 190 195 193 191 200 200 188 182 184 185 181 165 176 187 211 224 256 272 238 268